sat.trackr.live / text

‹ back to catalog

STARLINK-1967

NORAD 47568 · 2021-009W

PAYLOAD ACTIVE UNKNOWN

§ Identity

Operator
Country
US
Launch date
2021-02-04
Launch site
AFETR
Launch vehicle
Mass (kg)
RCS (m²)

Purposes: comms

External: N2YO · Heavens-Above · Gunter

§ Orbital elements

Epoch: 2026-05-25T00:15:32.095296Z

Period
91.30 min
Inclination
53.0422°
Eccentricity
0.0001950
Mean motion
15.77217754 rev/d
Perigee alt
337.0 km
Apogee alt
339.6 km
Semi-major
6,716.5 km
B*
5.6684e-6
RAAN
347.4534°
Arg perigee
166.5819°
Mean anomaly
193.5252°
Rev number
29,302

§ Raw data

STARLINK-19671 47568U 21009W   26145.01078814  .00000287  00000+0  56684-5 0  99992 47568  53.0422 347.4534 0001950 166.5819 193.5252 15.77217754293028

JSON: /api/v1/satellites/47568 · /tle

For live sub-satellite position, see the globe view (requires WebGL).

§ Visibility from observer

Set your observer location to see the next 7 days of passes ≥ 10°. The values pass through the URL so the page stays shareable.

No JS? Fill the form by hand. The geolocation button needs JavaScript.